User: anonymous   Login
Location: Beekmeers
(50.8953°N, 3.6968°E)
Time: 05:06:55
(UTC+00:00)
Language:

Lacrosse 5 rocket - Orbit

View from above orbital plane
View from above orbital plane
View from above satellite
View from above satellite

Ground track
Ground track

The orbit data is extracted from the following two-line orbital elements,

1 28647U 05016B   24205.43700762  .00013530  00000-0  56863-3 0  9994
2 28647  56.9928 238.2341 0096498 344.0218  15.7787 15.19597968286022
Epoch (UTC): 23 July 2024 10:29:17
Eccentricity: 0.0096498
inclination: 56.9928°
perigee height: 440 km
apogee height: 573 km
right ascension of ascending node: 238.2341°
argument of perigee: 344.0218°
revolutions per day: 15.19597968
mean anomaly at epoch: 15.7787°
orbit number at epoch: 28602

The dashed part of the orbit path shows where the satellite is in the earth's shadow,  

DLR